Regional Weather Roundup
Issued by NWS

Home | Current Version | Previous Version | Graphics & Text | Print | Product List | Glossary Off
Versions: 1 2 3 4 5 6 7 8 9 10 11 12 13 14 15 16 17 18 19 20 21 22 23 24 25 26 27 28 29 30 31 32 33 34 35 36 37 38 39 40 41 42 43 44 45 46 47 48 49 50

000
ASUS43 KMPX 222110
RWRMN
WEATHER ROUNDUP FOR MINNESOTA
NATIONAL WEATHER SERVICE TWIN CITIES/CHANHASSEN MN
400 PM CDT TUE APR 22 2014


NOTE: "FAIR" INDICATES FEW OR NO CLOUDS BELOW 12,000 FEET WITH NO
SIGNIFICANT WEATHER AND/OR OBSTRUCTIONS TO VISIBILITY. N/A MEANS
CURRENT SKY AND/OR WEATHER CONDITIONS ARE NOT AVAILABLE.

MNZ060>063-068>070-222200-
   Twin Cities Metro

CITY           SKY/WX    TMP DP  RH WIND       PRES   REMARKS
TWIN CITIES    MOSUNNY   58  27  30 N12G20    30.06F
ST PAUL        SUNNY     58  28  32 N16G22    30.07F
CRYSTAL        SUNNY     58  28  32 N9G17     30.06F
EDEN PRAIRIE   MOSUNNY   59  31  34 NW10      30.05F
LAKEVILLE      MOSUNNY   57  28  33 N12G20    30.06F
SOUTH ST PAUL  SUNNY     60  26  27 N13       30.06F
LAKE ELMO      FAIR      55  30  38 N8        30.07F
$$
MNZ001>005-007-008-013>017-022>024-027-028-222200-
   Northwest Minnesota

CITY           SKY/WX    TMP DP  RH WIND       PRES   REMARKS
BEMIDJI        SUNNY     54  28  36 N10       30.07S
HALLOCK        CLOUDY    57  34  41 E5        30.04F
ROSEAU         SUNNY     54  32  43 NE3       30.07F
WARROAD        SUNNY     45  27  49 E8        30.10F
THIEF RVR FALL SUNNY     57  30  35 NE7       30.06F
CROOKSTON      SUNNY     61  34  36 E6        30.04F
FOSSTON        SUNNY     59  30  33 E5        30.06F
DETROIT LAKES  SUNNY     57  30  35 CALM      30.04F
MOORHEAD       MOSUNNY   61  30  31 SE5       30.03F
PARK RAPIDS    SUNNY     57  26  30 MISG      30.04F
$$
MNZ006-009>011-018-025>026-222200-
   North Central Minnesota

CITY           SKY/WX    TMP DP  RH WIND       PRES   REMARKS
BAUDETTE       SUNNY     51  22  31 VRB6      30.09F
FLAG ISLAND    SUNNY     37  27  65 S6        30.10F
INTL FALLS     SUNNY     51  21  30 VRB5      30.08F
WASKISH        SUNNY     52  25  35 W7        30.09S
BIG FORK       SUNNY     55  19  24 W7        30.08S
LONGVILLE      SUNNY     54  25  32 W7        30.08F
GRAND RAPIDS   SUNNY     52  19  28 N5        30.08F
CRANE LAKE     SUNNY     52  21  30 N5        30.10S
ORR            SUNNY     50  16  25 NW5       30.06S
COOK           SUNNY     52  23  32 NW8       30.08S
$$
MNZ012-019>021-037-222200-
   Northeast Minnesota

CITY           SKY/WX    TMP DP  RH WIND       PRES   REMARKS
DULUTH         MOSUNNY   52  24  33 NW14G20   30.06F
ELY            SUNNY     48  16  27 NW5       30.06F
HIBBING        SUNNY     54  21  27 N9        30.06F
EVELETH        SUNNY     52  21  30 NW8       30.08S
DULUTH HARBOR  SUNNY     52  21  30 CALM      30.09S
TWO HARBORS    SUNNY     52  25  35 N6        30.04F
SILVER BAY     SUNNY     46  28  49 SE5       30.04F
GRAND MARAIS     N/A     38  31  76 S8        30.07R
G MARAIS ARPRT PTSUNNY   46  18  31 NW9       30.04S
$$
MNZ029>031-032-039>041-046>048-054>057-064-222200-
   West Central Minnesota

CITY           SKY/WX    TMP DP  RH WIND       PRES   REMARKS
FERGUS FALLS   MOSUNNY   59  27  29 CALM      30.00F
WHEATON        PTSUNNY   63  36  36 E10       30.04F
MORRIS         PTSUNNY   63  32  31 NE6       30.03F
ALEXANDRIA     MOSUNNY   58  32  37 VRB3      30.05F
ELBOW LAKE     FAIR      59  33  36 E5        30.04S
WADENA         SUNNY     55  32  41 CALM      30.04F
GLENWOOD       PTSUNNY   61  34  36 E5        30.06S
APPLETON       PTSUNNY   63  28  27 S6        30.03F
BENSON         PTSUNNY   59  32  36 CALM      30.05F
ORTONVILLE     MOSUNNY   61  27  27 E9G16     30.02F
MADISON        MOSUNNY   66  30  26 E8        30.02F
WILLMAR        FAIR      59  32  36 CALM      30.07F
$$
MNZ033>034-036-042>043-049>051-058-059-222200-
   Central Minnesota

CITY           SKY/WX    TMP DP  RH WIND       PRES   REMARKS
ST CLOUD       SUNNY     59  30  33 VRB6      30.06F
SAUK CENTRE    FAIR      57  33  39 NE8       30.05F
PAYNESVILLE    MOSUNNY   56  30  36 N7        30.06F
AITKIN         SUNNY     57  19  23 NW9       30.05F
PINE RIVER     SUNNY     54  30  40 NE8       30.10S
BRAINERD       SUNNY     60  25  26 N9        30.08F
STAPLES        SUNNY     55  25  30 E3        30.05F
LONG PRAIRIE   FAIR      55  32  41 NE7       30.06F
LITTLE FALLS   SUNNY     55  28  35 CALM      30.06F
LITCHFIELD     PTSUNNY   57  32  38 NE6       30.06F
BUFFALO        SUNNY     57  29  35 NW8       30.07F
MAPLE LAKE     MOSUNNY   57  33  39 N6        30.07F
$$
MNZ037-044-045-052-053-222200-
   East Central Minnesota

CITY           SKY/WX    TMP DP  RH WIND       PRES   REMARKS
PRINCETON      SUNNY     57  30  35 NE3       30.07F
MORA           SUNNY     54  28  37 N5        30.08F
CAMBRIDGE      SUNNY     57  36  44 N13       30.06F
RUSH CITY      SUNNY     54  26  33 N3        30.07F
MOOSE LAKE     SUNNY     54  23  30 N5        30.06F
HINCKLEY       FAIR      54  25  32 N10       30.07F
CLOQUET        SUNNY     52  18  25 N6        30.07S
MCGREGOR       SUNNY     54  21  28 NW12      30.07F
$$
MNZ071>073-080-081-089-090-097-098-222200-
   Southwest Minnesota

CITY           SKY/WX    TMP DP  RH WIND       PRES   REMARKS
MONTEVIDEO     MOSUNNY   66  32  28 E6        30.05F
GRANITE FALLS  MOSUNNY   63  32  31 E7        30.06F
CANBY          MOSUNNY   64  31  29 E9        30.02F
MARSHALL         N/A     63  30  29 SE9       30.03F VSB 3/4
REDWOOD FALLS  MOSUNNY   63  34  33 NE7       30.05F
OLIVIA         PTSUNNY   59  36  41 E6        30.06S
PIPESTONE      SUNNY     64  28  25 S8        30.01F
WINDOM         SUNNY     63  28  27 NW6       30.05F
WORTHINGTON    SUNNY     63  28  27 E5        30.06F
JACKSON        SUNNY     63  27  25 E3        30.06F
TRACY          SUNNY     62  30  29 CALM      30.04F
SLAYTON        SUNNY     63  28  26 E5        30.04F
$$
MNZ065>067-074>077-082>085-091>093-222200-
   South Central Minnesota

CITY           SKY/WX    TMP DP  RH WIND       PRES   REMARKS
MANKATO        MOSUNNY   57  30  35 NE14G20   30.06F
NEW ULM        MOSUNNY   59  36  41 N6        30.06F
ST JAMES       SUNNY     63  30  29 N12       30.06F
FAIRMONT       SUNNY     63  28  27 N5        30.07F
GLENCOE        PTSUNNY   57  30  35 N8        30.06F
FARIBAULT      PTSUNNY   59  25  27 NW10      30.06F
OWATONNA       PTSUNNY   57  30  35 N8G18     30.06F
WASECA         PTSUNNY   55  28  35 N12G20    30.07F
ALBERT LEA     MOSUNNY   57  30  35 N9G20     30.05F
$$
MNZ078>079-086>088-094>096-222200-
   Southeast Minnesota

CITY           SKY/WX    TMP DP  RH WIND       PRES   REMARKS
ROCHESTER      MOSUNNY   56  31  38 NW16      30.06F
RED WING       SUNNY     57  27  30 N7        30.05F
STANTON        MOSUNNY   58  29  32 N16       30.04F
DODGE CENTER   MOSUNNY   57  25  28 N13       30.06F
WINONA         MOSUNNY   59  28  31 NW14G22   30.04F
AUSTIN         PTSUNNY   55  28  35 N5G16     30.05F
PRESTON        PTSUNNY   56  29  36 N18       30.04F
$$
ABBREVIATIONS USED IN REMARKS
   TC - TEMPERATURES IN CELSIUS
  WCI - WIND CHILL INDEX
   HX - HEAT INDEX
  VSB - VISIBILITY
$$



USA.gov is the U.S. government's official web portal to all federal, state and local government web resources and services.